Surface/Precipitation History
01/19/2019 22:58  to  1/20/2019 22:58
Change End Date:
Date/Time
(MST)
Sf
Temp Chem Water Layer Surface Precipitation
Sfc Pvt Sub Frz Factor Pct Dpth DpthThk IcePct Cond Salin FI Type Intens Accum Rate
01/20/2019 22:52 Ice Warning 30.4F - 31F 32F 65 0% - - 100% 0 mhos 14 - None None - -
01/20/2019 22:50 Ice Warning 30.4F - 30F 32F 65 0% - - 100% 0 mhos 14 - None None - -
01/20/2019 22:40 Ice Warning 30.4F - 30F 32F 65 0% - - 100% 0 mhos 14 - None None - -
01/20/2019 22:37 Ice Warning 30.6F - 30F 32F 65 0% - - 100% 0 mhos 14 - None None - -
01/20/2019 22:30 Ice Warning 30.6F - 30F 32F 65 0% - - 98% 0 mhos 54 - None None - -
01/20/2019 22:22 Ice Warning 30.6F - 30F 32F 65 0% - - 98% 0 mhos 54 - None None - -
01/20/2019 22:20 Ice Warning 30.6F - 30F 32F 65 0% - - 98% 0 mhos 55 - None None - -
01/20/2019 22:10 Ice Warning 30.6F - 30F 32F 70 0% - - 98% 0 mhos 54 - None None - -
01/20/2019 22:07 Ice Warning 30.6F - 30F 32F 70 0% - - 98% 0 mhos 54 - None None - -
01/20/2019 22:00 Ice Warning 30.6F - 30F 32F 65 0% - - 98% 0 mhos 54 - None None - -
01/20/2019 21:52 Ice Warning 30.6F - 30F 32F 65 0% - - 98% 0 mhos 54 - None None - -
01/20/2019 21:50 Ice Warning 30.6F - 30F 32F 65 0% - - 98% 0 mhos 54 - None None - -
01/20/2019 21:40 Ice Warning 30.6F - 30F 32F 65 0% - - 98% 0 mhos 54 - None None - -
01/20/2019 21:37 Ice Warning 30.6F - 30F 32F 65 0% - - 98% 0 mhos 54 - None None - -
01/20/2019 21:30 Ice Warning 30.6F - 30F 32F 65 0% - - 98% 0 mhos 54 - None None - -
Date/Time
(MST)
Sf
Temp Chem Water Layer Surface Precipitation
Sfc Pvt Sub Frz Factor Pct Dpth DpthThk IcePct Cond Salin FI Type Intens Accum Rate
01/20/2019 21:22 Ice Warning 30.6F - 30F 32F 70 0% - - 98% 0 mhos 54 - None None - -
01/20/2019 21:20 Ice Warning 30.6F - 30F 32F 70 0% - - 98% 0 mhos 54 - None None - -
01/20/2019 21:10 Ice Warning 30.6F - 30F 32F 70 0% - - 98% 0 mhos 54 - None None - -
01/20/2019 21:07 Ice Warning 30.6F - 30F 32F 70 0% - - 98% 0 mhos 54 - None None - -
01/20/2019 21:00 Ice Warning 30.6F - 30F 32F 70 0% - - 98% 0 mhos 54 - None None - -
01/20/2019 20:52 Ice Warning 30.7F - 30F 32F 70 0% - - 98% 0 mhos 53 - None None - -
01/20/2019 20:50 Ice Warning 30.7F - 30F 32F 70 0% - - 98% 0 mhos 53 - None None - -
01/20/2019 20:40 Ice Warning 30.7F - 30F 32F 75 0% - - 98% 0 mhos 53 - Yes - - -
01/20/2019 20:37 Ice Warning 30.7F - 30F 32F 75 0% - - 98% 0 mhos 53 - None None - -
01/20/2019 20:30 Ice Warning 30.7F - 30F 32F 75 0% - - 98% 0 mhos 53 - None None - -
01/20/2019 20:22 Ice Warning 30.9F - 30F 32F 90 0% - - 99% 0 mhos 17 - Yes - - -
01/20/2019 20:20 Ice Warning 31.1F - 30F 32F 85 0% - - 99% 0 mhos 17 - None None - -
01/20/2019 20:10 Ice Warning 30.9F - 30F 32F 90 0% - - 99% 0 mhos 17 - None None - -
01/20/2019 20:07 Ice Warning 30.9F - 30F 32F 90 0% - - 99% 0 mhos 17 - Yes - - -
01/20/2019 20:00 Ice Warning 31.1F - 30F 32F 90 0% - - 99% 0 mhos 17 - Yes - - -
Date/Time
(MST)
Sf
Temp Chem Water Layer Surface Precipitation
Sfc Pvt Sub Frz Factor Pct Dpth DpthThk IcePct Cond Salin FI Type Intens Accum Rate
01/20/2019 19:52 Ice Warning 31.1F - 30F 32F 90 0% - - 99% 0 mhos 17 - Yes - - -
01/20/2019 19:50 Ice Warning 31.1F - 30F 32F 90 0% - - 99% 0 mhos 17 - Yes - - -
01/20/2019 19:40 Ice Warning 31.1F - 30F 32F 90 0% - - 99% 0 mhos 17 - Yes - - -
01/20/2019 19:37 Ice Warning 30.9F - 30F 32F 90 0% - - 99% 0 mhos 18 - Yes - - -
01/20/2019 19:29 Ice Warning 31.1F - 30F 32F 90 0% - - 99% 0 mhos 17 - Yes - - -
01/20/2019 19:22 Ice Warning 31.1F - 30F 32F 90 0% - - 99% 0 mhos 17 - Yes - - -
01/20/2019 19:19 Ice Warning 31.1F - 30F 32F 95 0% - - 99% 0 mhos 17 - Yes - - -
01/20/2019 19:09 Ice Warning 31.1F - 30F 32F 95 0% - - 99% 0 mhos 17 - Yes - - -
01/20/2019 19:07 Ice Warning 31.1F - 30F 32F 90 0% - - 99% 0 mhos 17 - Yes - - -
01/20/2019 18:59 Ice Warning 31.1F - 30F 32F 90 0% - - 99% 0 mhos 17 - Yes - - -
01/20/2019 18:52 Ice Warning 31.1F - 30F 32F 85 0% - - 99% 0 mhos 17 - Yes - - -
01/20/2019 18:49 Ice Warning 31.1F - 30F 32F 85 0% - - 99% 0 mhos 17 - Yes - - -
01/20/2019 18:39 Ice Warning 31.1F - 30F 32F 85 0% - - 99% 0 mhos 17 - Yes - - -
01/20/2019 18:37 Ice Warning 31.1F - 30F 32F 85 0% - - 99% 0 mhos 17 - Yes - - -
01/20/2019 18:29 Ice Warning 31.1F - 30F 32F 95 0% - - 99% 0 mhos 17 - Yes - - -
Date/Time
(MST)
Sf
Temp Chem Water Layer Surface Precipitation
Sfc Pvt Sub Frz Factor Pct Dpth DpthThk IcePct Cond Salin FI Type Intens Accum Rate
01/20/2019 18:22 Ice Warning 30.9F - 30F 32F 95 0% - - 99% 0 mhos 18 - Yes - - -
01/20/2019 18:19 Ice Warning 30.9F - 30F 32F 95 0% - - 99% 0 mhos 19 - Yes - - -
01/20/2019 18:09 Ice Warning 30.9F - 30F 32F 95 0% - - 99% 0 mhos 22 - Yes - - -
01/20/2019 18:07 Ice Warning 30.9F - 30F 32F 95 0% - - 99% 0 mhos 21 - Yes - - -
01/20/2019 17:59 Ice Warning 31.1F - 30F 32F 95 0% - - 99% 0 mhos 17 - Yes - - -
01/20/2019 17:52 Ice Warning 31.3F - 30F 32F 95 0% - - 99% 0 mhos 14 - Yes - - -
01/20/2019 17:49 Ice Warning 31.1F - 30F 32F 95 0% - - 99% 0 mhos 12 - None None - -
01/20/2019 17:39 Ice Warning 31.3F - 30F 32F 90 0% - - 99% 0 mhos 10 - None None - -
01/20/2019 17:37 Ice Warning 31.3F - 30F 32F 90 0% - - 100% 0 mhos 9 - None None - -
01/20/2019 17:29 Ice Warning 31.3F - 30F 32F 90 0% - - 100% 0 mhos 7 - Yes - - -
01/20/2019 17:22 Ice Warning 31.3F - 30F 32F 90 0% - - 100% 0 mhos 6 - None None - -
01/20/2019 17:19 Ice Warning 31.3F - 30F 32F 85 0% - - 100% 0 mhos 6 - None None - -
01/20/2019 17:09 Ice Warning 31.5F - 30F 32F 85 0% - - 97% 0 mhos 50 - None None - -
01/20/2019 17:07 Ice Warning 31.5F - 30F 32F 90 0% - - 97% 0 mhos 50 - None None - -
01/20/2019 16:59 Ice Warning 31.5F - 30F 32F 85 0% - - 96% 0 mhos 50 - None None - -
Date/Time
(MST)
Sf
Temp Chem Water Layer Surface Precipitation
Sfc Pvt Sub Frz Factor Pct Dpth DpthThk IcePct Cond Salin FI Type Intens Accum Rate
01/20/2019 16:49 Ice Warning 31.6F - 30F 32F 85 0% - - 94% 0 mhos 49 - None None - -
01/20/2019 16:39 Ice Warning 31.8F - 30F 32F 85 0% - - 88% 0 mhos 49 - None None - -
01/20/2019 16:37 Ice Warning 31.8F - 30F 32F 85 0% - - 88% 0 mhos 49 - None None - -
01/20/2019 16:29 Chemically Wet 32.0F - 30F 32F 85 0% 9.40 in - 0% 0 mhos 48 - None None - -
01/20/2019 16:22 Wet 32.2F - 30F 32F 85 0% - - 0% 0 mhos 48 - None None - -
01/20/2019 16:19 Wet 32.4F - 30F 32F 85 0% 9.40 in - 0% 0 mhos 48 - None None - -
01/20/2019 16:09 Wet 32.5F - 30F 32F 85 0% 9.40 in - 0% 0 mhos 48 - None None - -
01/20/2019 16:07 Wet 32.5F - 30F 32F 85 0% - - 0% 0 mhos 48 - None None - -
01/20/2019 15:59 Wet 32.5F - 30F 32F 80 0% - - 0% 0 mhos 47 - None None - -
01/20/2019 15:52 Wet 32.7F - 30F 32F 80 0% 8.40 in - 0% 0 mhos 47 - None None - -
01/20/2019 15:48 Wet 32.9F - 30F 32F 80 0% 8.40 in - 0% 0 mhos 47 - None None - -
01/20/2019 15:38 Wet 32.9F - 30F 32F 80 0% 9.40 in - 0% 0 mhos 47 - None None - -
01/20/2019 15:37 Wet 33.1F - 30F 32F 80 0% 9.40 in - 0% 0 mhos 47 - None None - -
01/20/2019 15:28 Wet 33.1F - 30F 32F 80 0% 9.40 in - 0% 0 mhos 47 - None None - -
01/20/2019 15:22 Wet 33.3F - 30F 32F 80 0% 8.40 in - 0% 0 mhos 47 - None None - -
Date/Time
(MST)
Sf
Temp Chem Water Layer Surface Precipitation
Sfc Pvt Sub Frz Factor Pct Dpth DpthThk IcePct Cond Salin FI Type Intens Accum Rate
01/20/2019 15:18 Wet 33.3F - 30F 32F 80 0% 8.40 in - 0% 0 mhos 47 - None None - -
01/20/2019 15:08 Wet 33.6F - 30F 32F 80 0% - - 0% 0 mhos 47 - None None - -
01/20/2019 15:07 Wet 33.6F - 30F 32F 80 0% - - 0% 0 mhos 47 - None None - -
01/20/2019 14:58 Wet 33.8F - 30F 32F 80 0% 0.00 in - 0% 1 mhos 50 - None None - -
01/20/2019 14:52 Wet 33.8F - 30F 32F 75 0% 0.10 in - 0% 0 mhos 7 - None None - -
01/20/2019 14:48 Wet 34.0F - 30F 32F 75 0% 0.10 in - 0% 0 mhos 7 - None None - -
01/20/2019 14:38 Wet 34.2F - 30F 32F 80 0% 0.10 in - 0% 0 mhos 8 - None None - -
01/20/2019 14:37 Wet 34.3F - 30F 32F 80 0% 0.10 in - 0% 0 mhos 8 - None None - -
01/20/2019 14:28 Wet 34.7F - 30F 32F 80 0% 0.10 in - 0% 0 mhos 9 - None None - -
01/20/2019 14:22 Wet 34.7F - 30F 32F 80 0% 0.10 in - 0% 0 mhos 9 - None None - -
01/20/2019 14:18 Wet 34.5F - 30F 32F 80 0% 0.10 in - 0% 0 mhos 9 - None None - -
01/20/2019 14:08 Wet 34.7F - 30F 32F 80 0% 0.10 in - 0% 0 mhos 8 - None None - -
01/20/2019 14:07 Wet 34.7F - 30F 32F 75 0% 0.10 in - 0% 0 mhos 7 - None None - -
01/20/2019 13:58 Wet 35.1F - 30F 32F 75 0% 0.10 in - 0% 0 mhos 8 - None None - -
01/20/2019 13:52 Wet 35.4F - 30F 32F 75 0% 0.10 in - 0% 0 mhos 8 - None None - -
Date/Time
(MST)
Sf
Temp Chem Water Layer Surface Precipitation
Sfc Pvt Sub Frz Factor Pct Dpth DpthThk IcePct Cond Salin FI Type Intens Accum Rate
01/20/2019 13:48 Wet 35.6F - 30F 32F 75 0% 0.10 in - 0% 0 mhos 8 - None None - -
01/20/2019 13:38 Wet 35.6F - 30F 32F 80 0% 0.10 in - 0% 0 mhos 9 - None None - -
01/20/2019 13:37 Wet 35.6F - 30F 32F 80 0% 0.10 in - 0% 0 mhos 9 - None None - -
01/20/2019 13:28 Wet 35.2F - 30F 32F 80 0% 0.10 in - 0% 0 mhos 9 - None None - -
01/20/2019 13:22 Wet 35.6F - 30F 32F 85 0% 0.10 in - 0% 0 mhos 9 - None None - -
01/20/2019 13:18 Wet 36.0F - 30F 32F 85 0% 0.10 in - 0% 0 mhos 9 - None None - -
01/20/2019 13:08 Wet 36.1F - 30F 32F 90 0% 0.10 in - 0% 0 mhos 9 - None None - -
01/20/2019 13:07 Wet 36.1F - 30F 32F 90 0% 0.10 in - 0% 0 mhos 9 - None None - -
01/20/2019 12:58 Wet 35.8F - 30F 32F 90 0% 0.10 in - 0% 0 mhos 10 - None None - -
01/20/2019 12:52 Wet 35.8F - 30F 32F 90 0% 0.10 in - 0% 0 mhos 10 - None None - -
01/20/2019 12:48 Wet 36.0F - 30F 32F 95 0% 0.10 in - 0% 0 mhos 10 - None None - -
01/20/2019 12:38 Wet 35.6F - 30F 32F 90 0% 0.10 in - 0% 0 mhos 11 - None None - -
01/20/2019 12:37 Wet 35.6F - 30F 32F 90 0% 0.10 in - 0% 0 mhos 11 - None None - -
01/20/2019 12:28 Wet 35.2F - 30F 32F 90 0% 0.10 in - 0% 0 mhos 13 - None None - -
01/20/2019 12:22 Wet 35.2F - 30F 32F 90 0% 0.10 in - 0% 0 mhos 17 - None None - -
Date/Time
(MST)
Sf
Temp Chem Water Layer Surface Precipitation
Sfc Pvt Sub Frz Factor Pct Dpth DpthThk IcePct Cond Salin FI Type Intens Accum Rate
01/20/2019 12:18 Wet 34.9F - 30F 32F 90 0% 0.00 in - 0% 0 mhos 21 - None None - -
01/20/2019 12:07 Wet 34.7F - 30F 32F 70 0% 9.40 in - 0% 0 mhos 46 - None None - -
01/20/2019 12:07 Wet 34.7F - 30F 32F 70 0% 9.40 in - 0% 0 mhos 46 - None None - -
01/20/2019 11:57 Wet 34.2F - 30F 32F 65 0% 7.60 in - 0% 0 mhos 47 - None None - -
01/20/2019 11:52 Wet 34.0F - 30F 32F 65 0% 8.40 in - 0% 0 mhos 47 - None None - -
01/20/2019 11:47 Wet 34.0F - 30F 32F 60 0% 9.40 in - 0% 0 mhos 47 - None None - -
01/20/2019 11:37 Wet 34.0F - 30F 32F 55 1% 9.60 in - 0% 3 mhos 263 - None None - -
01/20/2019 11:37 Wet 34.0F - 30F 32F 55 1% 9.60 in - 0% 3 mhos 263 - None None - -
01/20/2019 11:27 Wet 33.6F - 30F 32F 55 0% 9.40 in - 0% 0 mhos 47 - None None - -
01/20/2019 11:22 Wet 34.0F - 30F 32F 50 0% 9.40 in - 0% 0 mhos 47 - None None - -
01/20/2019 11:17 Wet 33.8F - 30F 32F 50 0% - - 0% 0 mhos 47 - None None - -
01/20/2019 11:07 Wet 32.7F - 30F 32F 45 0% 0.00 in - 0% 1 mhos 74 - None None - -
01/20/2019 11:07 Wet 32.7F - 30F 32F 45 0% 0.00 in - 0% 1 mhos 74 - None None - -
01/20/2019 10:57 Wet 32.4F - 30F 32F 45 0% 0.00 in - 0% 1 mhos 70 - None None - -
01/20/2019 10:52 Wet 32.2F - 30F 32F 50 0% 0.00 in - 0% 1 mhos 65 - None None - -
Date/Time
(MST)
Sf
Temp Chem Water Layer Surface Precipitation
Sfc Pvt Sub Frz Factor Pct Dpth DpthThk IcePct Cond Salin FI Type Intens Accum Rate
01/20/2019 10:47 Ice Warning 31.6F - 30F 32F 55 0% - - 92% 1 mhos 65 - None None - -
01/20/2019 10:37 Ice Warning 31.6F - 30F 32F 55 0% - - 92% 1 mhos 66 - None None - -
01/20/2019 10:37 Ice Warning 31.6F - 30F 32F 55 0% - - 92% 1 mhos 66 - None None - -
01/20/2019 10:27 Ice Warning 31.6F - 30F 32F 60 0% - - 92% 1 mhos 64 - None None - -
01/20/2019 10:22 Ice Warning 31.6F - 30F 32F 70 0% - - 92% 1 mhos 60 - None None - -
01/20/2019 10:17 Ice Warning 31.3F - 30F 32F 95 0% - - 97% 1 mhos 56 - None None - -
01/20/2019 10:07 Ice Warning 30.2F - 30F 32F 95 0% - - 99% 0 mhos 52 - None None - -
01/20/2019 10:07 Ice Warning 30.2F - 30F 32F 95 0% - - 99% 0 mhos 52 - None None - -
01/20/2019 09:57 Ice Warning 29.7F - 30F 32F 95 0% - - 99% 0 mhos 53 - None None - -
01/20/2019 09:52 Ice Warning 29.7F - 30F 32F 95 0% - - 99% 0 mhos 52 - None None - -
01/20/2019 09:47 Ice Warning 29.3F - 30F 32F 95 0% - - 99% 0 mhos 53 - None None - -
01/20/2019 09:37 Ice Warning 29.1F - 30F 32F 95 0% - - 99% 0 mhos 55 - None None - -
01/20/2019 09:37 Ice Warning 29.1F - 30F 32F 95 0% - - 99% 0 mhos 55 - None None - -
01/20/2019 09:27 Ice Warning 29.7F - 30F 32F 95 0% - - 99% 0 mhos 56 - None None - -
01/20/2019 09:22 Ice Warning 29.7F - 30F 32F 95 0% - - 99% 0 mhos 53 - None None - -
Date/Time
(MST)
Sf
Temp Chem Water Layer Surface Precipitation
Sfc Pvt Sub Frz Factor Pct Dpth DpthThk IcePct Cond Salin FI Type Intens Accum Rate
01/20/2019 09:17 Ice Warning 28.8F - 30F 32F 95 0% - - 99% 0 mhos 51 - None None - -
01/20/2019 09:07 Ice Warning 26.8F - 30F 32F 85 0% - - 99% 0 mhos 52 - None None - -
01/20/2019 09:07 Ice Warning 26.8F - 30F 32F 85 0% - - 99% 0 mhos 52 - None None - -
01/20/2019 08:57 Ice Warning 25.7F - 30F 32F 80 0% - - 100% 0 mhos 53 - None None - -
01/20/2019 08:52 Ice Warning 25.5F - 30F 32F 80 0% - - 100% 0 mhos 53 - None None - -
01/20/2019 08:46 Ice Warning 25.2F - 30F 32F 80 0% - - 100% 0 mhos 53 - None None - -
01/20/2019 08:37 Ice Warning 24.3F - 30F 32F 75 0% - - 100% 0 mhos 55 - None None - -
01/20/2019 08:36 Ice Warning 24.3F - 30F 32F 75 0% - - 100% 0 mhos 55 - None None - -
01/20/2019 08:26 Ice Warning 23.4F - 30F 32F 75 0% - - 100% 0 mhos 56 - None None - -
01/20/2019 08:22 Ice Warning 22.8F - 30F 32F 70 0% - - 100% 0 mhos 57 - None None - -
01/20/2019 08:16 Ice Warning 22.3F - 30F 32F 70 0% - - 100% 0 mhos 58 - None None - -
01/20/2019 08:07 Ice Warning 21.9F - 30F 32F 65 0% - - 100% 0 mhos 59 - None None - -
01/20/2019 08:06 Ice Warning 21.9F - 30F 32F 65 0% - - 100% 0 mhos 59 - None None - -
01/20/2019 07:56 Ice Warning 21.7F - 30F 32F 65 0% - - 100% 0 mhos 59 - None None - -
01/20/2019 07:52 Ice Warning 21.6F - 30F 32F 65 0% - - 100% 0 mhos 59 - None None - -
Date/Time
(MST)
Sf
Temp Chem Water Layer Surface Precipitation
Sfc Pvt Sub Frz Factor Pct Dpth DpthThk IcePct Cond Salin FI Type Intens Accum Rate
01/20/2019 07:46 Ice Warning 21.6F - 30F 32F 65 0% - - 100% 0 mhos 59 - None None - -
01/20/2019 07:37 Ice Warning 21.7F - 30F 32F 65 0% - - 100% 0 mhos 60 - None None - -
01/20/2019 07:36 Ice Warning 21.7F - 30F 32F 65 0% - - 100% 0 mhos 60 - None None - -
01/20/2019 07:26 Ice Warning 22.3F - 30F 32F 65 0% - - 100% 0 mhos 58 - None None - -
01/20/2019 07:22 Ice Warning 22.5F - 30F 32F 65 0% - - 100% 0 mhos 58 - None None - -
01/20/2019 07:16 Ice Warning 22.5F - 30F 32F 65 0% - - 100% 0 mhos 59 - None None - -
01/20/2019 07:07 Ice Warning 22.8F - 30F 32F 65 0% - - 100% 0 mhos 56 - None None - -
01/20/2019 07:06 Ice Warning 22.8F - 30F 32F 65 0% - - 100% 0 mhos 56 - None None - -
01/20/2019 06:56 Ice Warning 23.4F - 30F 32F 65 0% - - 100% 0 mhos 55 - None None - -
01/20/2019 06:52 Ice Warning 23.5F - 30F 32F 70 0% - - 100% 0 mhos 54 - None None - -
01/20/2019 06:46 Ice Warning 23.9F - 30F 32F 70 0% - - 100% 0 mhos 53 - None None - -
01/20/2019 06:37 Ice Warning 24.3F - 30F 32F 70 0% - - 100% 0 mhos 52 - None None - -
01/20/2019 06:36 Ice Warning 24.3F - 30F 32F 70 0% - - 100% 0 mhos 52 - None None - -
01/20/2019 06:26 Ice Warning 24.6F - 30F 32F 70 0% - - 100% 0 mhos 50 - None None - -
01/20/2019 06:22 Ice Warning 24.8F - 30F 32F 75 0% - - 100% 0 mhos 49 - None None - -
Date/Time
(MST)
Sf
Temp Chem Water Layer Surface Precipitation
Sfc Pvt Sub Frz Factor Pct Dpth DpthThk IcePct Cond Salin FI Type Intens Accum Rate
01/20/2019 06:16 Ice Warning 25.0F - 30F 32F 75 0% - - 100% 0 mhos 49 - None None - -
01/20/2019 06:07 Ice Warning 25.2F - 30F 32F 75 0% - - 100% 0 mhos 48 - None None - -
01/20/2019 06:06 Ice Warning 25.2F - 30F 32F 70 0% - - 100% 0 mhos 48 - None None - -
01/20/2019 05:56 Ice Warning 25.3F - 30F 32F 70 0% - - 100% 0 mhos 51 - None None - -
01/20/2019 05:52 Ice Warning 25.5F - 30F 32F 70 0% - - 100% 0 mhos 47 - None None - -
01/20/2019 05:46 Ice Warning 25.7F - 30F 32F 75 0% - - 100% 0 mhos 48 - None None - -
01/20/2019 05:37 Ice Warning 25.7F - 30F 32F 75 0% - - 100% 0 mhos 48 - None None - -
01/20/2019 05:36 Ice Warning 25.7F - 30F 32F 75 0% - - 100% 0 mhos 46 - None None - -
01/20/2019 05:25 Ice Warning 25.9F - 30F 32F 75 0% - - 100% 0 mhos 45 - None None - -
01/20/2019 05:22 Ice Warning 25.9F - 30F 32F 75 0% - - 100% 0 mhos 46 - None None - -
01/20/2019 05:15 Ice Warning 26.1F - 30F 32F 75 0% - - 100% 0 mhos 44 - None None - -
01/20/2019 05:07 Ice Warning 26.1F - 30F 32F 75 0% - - 100% 0 mhos 44 - None None - -
01/20/2019 05:05 Ice Warning 26.1F - 30F 32F 75 0% - - 100% 0 mhos 45 - None None - -
01/20/2019 04:55 Ice Warning 25.9F - 30F 32F 75 0% - - 100% 0 mhos 45 - None None - -
01/20/2019 04:52 Ice Warning 26.1F - 30F 32F 75 0% - - 100% 0 mhos 45 - None None - -
Date/Time
(MST)
Sf
Temp Chem Water Layer Surface Precipitation
Sfc Pvt Sub Frz Factor Pct Dpth DpthThk IcePct Cond Salin FI Type Intens Accum Rate
01/20/2019 04:45 Ice Warning 26.1F - 30F 32F 75 0% - - 100% 0 mhos 45 - None None - -
01/20/2019 04:37 Ice Warning 26.2F - 30F 32F 75 0% - - 100% 0 mhos 44 - None None - -
01/20/2019 04:35 Ice Warning 26.2F - 30F 32F 75 0% - - 100% 0 mhos 44 - None None - -
01/20/2019 04:25 Ice Warning 26.4F - 30F 32F 75 0% - - 100% 0 mhos 44 - None None - -
01/20/2019 04:22 Ice Warning 26.4F - 30F 32F 75 0% - - 100% 0 mhos 44 - None None - -
01/20/2019 04:15 Ice Warning 26.6F - 30F 32F 75 0% - - 100% 0 mhos 44 - None None - -
01/20/2019 04:07 Ice Warning 26.8F - 30F 32F 75 0% - - 100% 0 mhos 43 - None None - -
01/20/2019 04:05 Ice Warning 26.8F - 30F 32F 80 0% - - 100% 0 mhos 44 - None None - -
01/20/2019 03:55 Ice Warning 26.6F - 30F 32F 80 0% - - 100% 0 mhos 44 - None None - -
01/20/2019 03:52 Ice Warning 26.6F - 30F 32F 80 0% - - 100% 0 mhos 44 - None None - -
01/20/2019 03:45 Ice Warning 26.6F - 30F 32F 80 0% - - 100% 0 mhos 44 - None None - -
01/20/2019 03:37 Ice Warning 26.6F - 30F 32F 80 0% - - 100% 0 mhos 44 - None None - -
01/20/2019 03:35 Ice Warning 26.6F - 30F 32F 80 0% - - 100% 0 mhos 45 - None None - -
01/20/2019 03:25 Ice Warning 26.8F - 30F 32F 80 0% - - 100% 0 mhos 45 - None None - -
01/20/2019 03:22 Ice Warning 26.8F - 30F 32F 80 0% - - 100% 0 mhos 44 - None None - -
Date/Time
(MST)
Sf
Temp Chem Water Layer Surface Precipitation
Sfc Pvt Sub Frz Factor Pct Dpth DpthThk IcePct Cond Salin FI Type Intens Accum Rate
01/20/2019 03:15 Ice Warning 26.8F - 30F 32F 80 0% - - 100% 0 mhos 45 - None None - -
01/20/2019 03:07 Ice Warning 26.8F - 30F 32F 80 0% - - 100% 0 mhos 46 - None None - -
01/20/2019 03:05 Ice Warning 26.8F - 30F 32F 80 0% - - 100% 0 mhos 46 - None None - -
01/20/2019 02:55 Ice Warning 26.8F - 30F 32F 80 0% - - 100% 0 mhos 46 - None None - -
01/20/2019 02:52 Ice Warning 26.8F - 30F 32F 80 0% - - 100% 0 mhos 46 - None None - -
01/20/2019 02:45 Ice Warning 26.6F - 30F 32F 80 0% - - 100% 0 mhos 47 - None None - -
01/20/2019 02:37 Ice Warning 26.2F - 30F 32F 80 0% - - 100% 0 mhos 48 - None None - -
01/20/2019 02:35 Ice Warning 26.2F - 30F 32F 80 0% - - 100% 0 mhos 48 - None None - -
01/20/2019 02:25 Ice Warning 26.1F - 30F 32F 80 0% - - 100% 0 mhos 48 - None None - -
01/20/2019 02:22 Ice Warning 26.1F - 30F 32F 80 0% - - 100% 0 mhos 48 - None None - -
01/20/2019 02:15 Ice Warning 25.9F - 30F 32F 85 0% - - 100% 0 mhos 49 - None None - -
01/20/2019 02:07 Ice Warning 25.9F - 30F 32F 85 0% - - 100% 0 mhos 50 - None None - -
01/20/2019 02:05 Ice Warning 25.7F - 30F 32F 85 0% - - 100% 0 mhos 50 - None None - -
01/20/2019 01:54 Ice Warning 25.7F - 30F 32F 85 0% - - 100% 0 mhos 50 - None None - -
01/20/2019 01:52 Ice Warning 25.7F - 30F 32F 85 0% - - 100% 0 mhos 52 - None None - -
Date/Time
(MST)
Sf
Temp Chem Water Layer Surface Precipitation
Sfc Pvt Sub Frz Factor Pct Dpth DpthThk IcePct Cond Salin FI Type Intens Accum Rate
01/20/2019 01:44 Ice Warning 25.3F - 30F 32F 80 0% - - 100% 0 mhos 52 - None None - -
01/20/2019 01:37 Ice Warning 25.3F - 30F 32F 80 0% - - 100% 0 mhos 52 - None None - -
01/20/2019 01:34 Ice Warning 25.3F - 30F 32F 80 0% - - 100% 0 mhos 52 - None None - -
01/20/2019 01:24 Ice Warning 25.5F - 30F 32F 85 0% - - 100% 0 mhos 52 - None None - -
01/20/2019 01:22 Ice Warning 25.5F - 30F 32F 85 0% - - 100% 0 mhos 52 - None None - -
01/20/2019 01:14 Ice Warning 25.3F - 30F 32F 85 0% - - 100% 0 mhos 53 - None None - -
01/20/2019 01:07 Ice Warning 25.0F - 30F 32F 85 0% - - 100% 0 mhos 54 - None None - -
01/20/2019 01:04 Ice Warning 25.0F - 30F 32F 85 0% - - 100% 0 mhos 54 - None None - -
01/20/2019 00:54 Ice Warning 24.4F - 30F 32F 85 0% - - 100% 0 mhos 57 - None None - -
01/20/2019 00:52 Ice Warning 24.4F - 30F 32F 85 0% - - 100% 0 mhos 56 - None None - -
01/20/2019 00:44 Ice Warning 24.4F - 30F 32F 80 0% - - 100% 0 mhos 57 - None None - -
01/20/2019 00:37 Ice Warning 24.6F - 30F 32F 85 0% - - 100% 0 mhos 56 - None None - -
01/20/2019 00:34 Ice Warning 24.6F - 30F 32F 85 0% - - 100% 0 mhos 56 - None None - -
01/20/2019 00:24 Ice Warning 24.6F - 30F 32F 85 0% - - 100% 0 mhos 56 - None None - -
01/20/2019 00:22 Ice Warning 24.8F - 30F 32F 85 0% - - 100% 0 mhos 56 - None None - -
Date/Time
(MST)
Sf
Temp Chem Water Layer Surface Precipitation
Sfc Pvt Sub Frz Factor Pct Dpth DpthThk IcePct Cond Salin FI Type Intens Accum Rate
01/20/2019 00:14 Ice Warning 25.3F - 30F 32F 85 0% - - 100% 0 mhos 54 - None None - -
01/20/2019 00:07 Ice Warning 25.5F - 30F 32F 90 0% - - 100% 0 mhos 54 - None None - -
01/20/2019 00:04 Ice Warning 25.5F - 30F 32F 90 0% - - 100% 0 mhos 54 - None None - -
01/19/2019 23:54 Ice Warning 25.3F - 30F 32F 85 0% - - 100% 0 mhos 55 - None None - -
01/19/2019 23:52 Ice Warning 25.3F - 30F 32F 90 0% - - 100% 0 mhos 55 - None None - -
01/19/2019 23:44 Ice Warning 25.3F - 30F 32F 85 0% - - 100% 0 mhos 55 - None None - -
01/19/2019 23:37 Ice Warning 25.5F - 30F 32F 90 0% - - 100% 0 mhos 55 - None None - -
01/19/2019 23:34 Ice Warning 25.5F - 30F 32F 85 0% - - 100% 0 mhos 55 - None None - -
01/19/2019 23:24 Ice Warning 25.7F - 30F 32F 90 0% - - 99% 0 mhos 54 - None None - -
01/19/2019 23:22 Ice Warning 25.7F - 30F 32F 90 0% - - 99% 0 mhos 54 - None None - -
01/19/2019 23:14 Ice Warning 26.4F - 30F 32F 90 0% - - 99% 0 mhos 52 - None None - -
01/19/2019 23:07 Ice Warning 26.8F - 30F 32F 90 0% - - 99% 0 mhos 51 - None None - -
01/19/2019 23:04 Ice Warning 26.8F - 30F 32F 90 0% - - 99% 0 mhos 50 - None None - -
Change End Date:

Copyright © 1998-2015 Vaisala, Inc.
All Rights Reserved
Send comments about the data to:
SCAN Web ® is a registered trademark of Vaisala, Inc.
SCAN Web Version 6.0